This demonstration page uses our WeatherBlox Daily Observations layout. Learn more.

Left ArrowRight Arrow

36.17497, -115.13722

Hourly Observations for July 21, 2020

Temp ( °F °C ) Dew Point ( °F °C ) Humidity (%) Winds ( mph kmh ) Pressure ( in mb ) Visibility ( mi km ) Precip ( " mm )
12:53 am 00:53 Clear 90 32.2 46 7.8 22 22 Calm 29.75 1007 10 16 0.00 0.00
1:53 am 01:53 Clear 86 30 44 6.7 23 23 NW 6 9 29.75 1007 10 16 0.00 0.00
2:53 am 02:53 Clear 85 29.4 46 7.8 26 26 NNW 3 6 29.75 1008 10 16 0.00 0.00
3:53 am 03:53 Clear 85 29.4 39 3.9 20 20 NNW 6 9 29.76 1008 10 16 0.00 0.00
4:53 am 04:53 Clear 84 28.9 40 4.4 21 21 WNW 7 11 29.77 1008 10 16 0.00 0.00
5:53 am 05:53 Sunny 83 28.3 40 4.4 22 22 WNW 6 9 29.79 1009 10 16 0.00 0.00
6:53 am 06:53 Sunny 86 30 43 6.1 22 22 WNW 3 6 29.80 1009 10 16 0.00 0.00
7:53 am 07:53 Sunny 90 32.2 43 6.1 19 19 Calm 29.82 1010 10 16 0.00 0.00
8:53 am 08:53 Sunny 96 35.6 39 3.9 14 14 E 5 7 29.81 1010 10 16 0.00 0.00
9:53 am 09:53 Sunny 97 36.1 39 3.9 13 13 ESE 8 13 29.81 1010 10 16 0.00 0.00
10:53 am 10:53 Sunny 100 37.8 37 2.8 11 11 undefined N/A 29.80 1009 10 16 0.00 0.00
11:53 am 11:53 Sunny 103 39.4 37 2.8 10 10 ENE 5 7 29.79 1009 10 16 0.00 0.00
12:53 pm 12:53 Sunny 105 40.6 37 2.8 10 10 undefined N/A 29.76 1008 10 16 0.00 0.00
1:53 pm 13:53 Sunny 106 41.1 37 2.8 9 9 undefined N/A 29.73 1007 10 16 0.00 0.00
2:53 pm 14:53 Sunny 107 41.7 36 2.2 9 9 Calm 29.70 1006 10 16 0.00 0.00
3:53 pm 15:53 Sunny 108 42.2 35 1.7 8 8 VRB 6 9 29.67 1005 10 16 0.00 0.00
4:53 pm 16:53 Sunny 106 41.1 35 1.7 9 9 SE 6 9 29.66 1004 10 16 0.00 0.00
5:53 pm 17:53 Sunny 107 41.7 35 1.7 8 8 S 12 19 29.65 1004 10 16 0.00 0.00
6:53 pm 18:53 Sunny 105 40.6 35 1.7 9 9 SSE 8 13 29.65 1004 10 16 0.00 0.00
7:27 pm 19:27 Sunny 102 38.9 43 6.1 13 13 ENE 18 30 29.50 999 10 16 0.00 0.00
7:53 pm 19:53 Sunny 101 38.3 43 6.1 14 14 ENE 18 30 29.66 1004 10 16 0.00 0.00
8:53 pm 20:53 Clear 100 37.8 43 6.1 14 14 ENE 17 28 29.68 1005 10 16 0.00 0.00
9:53 pm 21:53 Clear 98 36.7 43 6.1 15 15 ENE 16 26 29.69 1005 10 16 0.00 0.00
10:53 pm 22:53 Clear 96 35.6 43 6.1 16 16 ENE 12 19 29.70 1006 10 16 0.00 0.00
11:53 pm 23:53 Clear 93 33.9 41 5 16 16 VRB 5 7 29.71 1006 10 16 0.00 0.00

Powered by AerisWeather